owner,sensor,date,latitude,longitude,vertical_datum,wind_speed,wind_to_direction,wind_speed_of_gust,qcFlag 
LUMCON,ioos:station:LUMCON:102:1,2015-04-08T16:00:00Z,29.1870,-90.6093,0.0,-9999.0,-99.99,-9999.0,'1111122,1111122,1111122' 
LUMCON,ioos:station:LUMCON:102:1,2015-04-08T16:15:00Z,29.1870,-90.6093,0.0,-9999.0,-99.99,-9999.0,'1111122,1111122,1111122' 
LUMCON,ioos:station:LUMCON:102:1,2015-04-08T16:30:00Z,29.1870,-90.6093,0.0,-9999.0,-99.99,-9999.0,'1111122,1111122,1111122' 
LUMCON,ioos:station:LUMCON:102:1,2015-04-08T16:45:00Z,29.1870,-90.6093,0.0,-99.99,-99.99,-9999.0,'1111122,1111122,1111122' 
LUMCON,ioos:station:LUMCON:102:1,2015-04-16T11:00:00Z,29.1870,-90.6093,0.0,-9999.0,225.0,-9999.0,'1111122,1111122,1111122' 
LUMCON,ioos:station:LUMCON:102:1,2015-04-16T11:15:00Z,29.1870,-90.6093,0.0,-9999.0,222.0,-9999.0,'1111122,1111122,1111122' 
LUMCON,ioos:station:LUMCON:102:1,2015-04-16T11:30:00Z,29.1870,-90.6093,0.0,-9999.0,222.0,-9999.0,'1111122,1111122,1111122' 
LUMCON,ioos:station:LUMCON:102:1,2015-04-16T11:45:00Z,29.1870,-90.6093,0.0,26.4,232.0,-9999.0,'1111122,1111122,1111122' 
LUMCON,ioos:station:LUMCON:102:1,2015-04-16T12:00:00Z,29.1870,-90.6093,0.0,-9999.0,230.0,-9999.0,'1111122,1111122,1111122' 
LUMCON,ioos:station:LUMCON:102:1,2015-04-16T12:15:00Z,29.1870,-90.6093,0.0,-9999.0,229.0,-9999.0,'1111122,1111122,1111122' 
LUMCON,ioos:station:LUMCON:102:1,2015-04-16T12:30:00Z,29.1870,-90.6093,0.0,-9999.0,228.0,-9999.0,'1111122,1111122,1111122' 
LUMCON,ioos:station:LUMCON:102:1,2015-04-16T12:45:00Z,29.1870,-90.6093,0.0,19.7,219.0,-9999.0,'1111122,1111122,1111122' 
LUMCON,ioos:station:LUMCON:102:1,2015-04-16T14:00:00Z,29.1870,-90.6093,0.0,-9999.0,214.0,-9999.0,'1111122,1111122,1111122' 
LUMCON,ioos:station:LUMCON:102:1,2015-04-16T14:15:00Z,29.1870,-90.6093,0.0,-9999.0,225.0,-9999.0,'1111122,1111122,1111122' 
LUMCON,ioos:station:LUMCON:102:1,2015-04-16T14:30:00Z,29.1870,-90.6093,0.0,-9999.0,222.0,-9999.0,'1111122,1111122,1111122' 
LUMCON,ioos:station:LUMCON:102:1,2015-04-16T14:45:00Z,29.1870,-90.6093,0.0,15.9,220.0,-9999.0,'1111122,1111122,1111122' 
LUMCON,ioos:station:LUMCON:102:1,2015-04-16T15:00:00Z,29.1870,-90.6093,0.0,-9999.0,214.0,-9999.0,'1111122,1111122,1111122' 
LUMCON,ioos:station:LUMCON:102:1,2015-04-16T15:15:00Z,29.1870,-90.6093,0.0,-9999.0,212.0,-9999.0,'1111122,1111122,1111122' 
LUMCON,ioos:station:LUMCON:102:1,2015-04-16T15:30:00Z,29.1870,-90.6093,0.0,-9999.0,211.0,-9999.0,'1111122,1111122,1111122' 
LUMCON,ioos:station:LUMCON:102:1,2015-04-16T15:45:00Z,29.1870,-90.6093,0.0,11.6,222.0,-9999.0,'1111122,1111122,1111122' 
LUMCON,ioos:station:LUMCON:102:1,2015-04-16T16:00:00Z,29.1870,-90.6093,0.0,-9999.0,216.0,-9999.0,'1111122,1111122,1111122' 
LUMCON,ioos:station:LUMCON:102:1,2015-04-16T16:15:00Z,29.1870,-90.6093,0.0,-9999.0,221.0,-9999.0,'1111122,1111122,1111122' 
LUMCON,ioos:station:LUMCON:102:1,2015-04-16T16:30:00Z,29.1870,-90.6093,0.0,-9999.0,214.0,-9999.0,'1111122,1111122,1111122' 
LUMCON,ioos:station:LUMCON:102:1,2015-04-16T16:45:00Z,29.1870,-90.6093,0.0,9.1,210.0,-9999.0,'1111122,1111122,1111122' 
LUMCON,ioos:station:LUMCON:102:1,2015-04-16T17:00:00Z,29.1870,-90.6093,0.0,-9999.0,198.0,-9999.0,'1111122,1111122,1111122' 
LUMCON,ioos:station:LUMCON:102:1,2015-04-16T17:15:00Z,29.1870,-90.6093,0.0,-9999.0,187.0,-9999.0,'1111122,1111122,1111122' 
LUMCON,ioos:station:LUMCON:102:1,2015-04-16T17:30:00Z,29.1870,-90.6093,0.0,-9999.0,177.0,-9999.0,'1111122,1111122,1111122' 
LUMCON,ioos:station:LUMCON:102:1,2015-04-16T17:45:00Z,29.1870,-90.6093,0.0,5.8,153.0,-9999.0,'1111122,1111122,1111122' 
LUMCON,ioos:station:LUMCON:102:1,2015-04-16T18:00:00Z,29.1870,-90.6093,0.0,-9999.0,141.0,-9999.0,'1111122,1111122,1111122' 
LUMCON,ioos:station:LUMCON:102:1,2015-04-16T18:15:00Z,29.1870,-90.6093,0.0,-9999.0,126.0,-9999.0,'1111122,1111122,1111122' 
LUMCON,ioos:station:LUMCON:102:1,2015-04-16T18:30:00Z,29.1870,-90.6093,0.0,-9999.0,133.0,-9999.0,'1111122,1111122,1111122' 
LUMCON,ioos:station:LUMCON:102:1,2015-04-16T18:45:00Z,29.1870,-90.6093,0.0,14.9,131.0,-9999.0,'1111122,1111122,1111122' 
LUMCON,ioos:station:LUMCON:102:1,2015-04-16T19:00:00Z,29.1870,-90.6093,0.0,-9999.0,141.0,-9999.0,'1111122,1111122,1111122' 
LUMCON,ioos:station:LUMCON:102:1,2015-04-16T19:15:00Z,29.1870,-90.6093,0.0,-9999.0,131.0,-9999.0,'1111122,1111122,1111122' 
LUMCON,ioos:station:LUMCON:102:1,2015-04-16T19:30:00Z,29.1870,-90.6093,0.0,-9999.0,134.0,-9999.0,'1111122,1111122,1111122' 
LUMCON,ioos:station:LUMCON:102:1,2015-04-16T19:45:00Z,29.1870,-90.6093,0.0,24.4,129.0,-9999.0,'1111122,1111122,1111122' 
LUMCON,ioos:station:LUMCON:102:1,2015-04-16T20:00:00Z,29.1870,-90.6093,0.0,-9999.0,117.0,-9999.0,'1111122,1111122,1111122' 
LUMCON,ioos:station:LUMCON:102:1,2015-04-16T20:15:00Z,29.1870,-90.6093,0.0,-9999.0,0.0,-9999.0,'1111122,1114422,1111122' 
LUMCON,ioos:station:LUMCON:102:1,2015-04-16T20:30:00Z,29.1870,-90.6093,0.0,-9999.0,0.0,-9999.0,'1111122,1114422,1111122' 
LUMCON,ioos:station:LUMCON:102:1,2015-04-16T20:45:00Z,29.1870,-90.6093,0.0,31.0,117.0,-9999.0,'1111122,1111122,1111122' 
LUMCON,ioos:station:LUMCON:102:1,2015-04-16T21:00:00Z,29.1870,-90.6093,0.0,-9999.0,0.0,-9999.0,'1111122,1114422,1111122' 
LUMCON,ioos:station:LUMCON:102:1,2015-04-16T21:15:00Z,29.1870,-90.6093,0.0,-9999.0,83.0,-9999.0,'1111122,1111122,1111122' 
LUMCON,ioos:station:LUMCON:102:1,2015-04-16T21:30:00Z,29.1870,-90.6093,0.0,-9999.0,77.0,-9999.0,'1111122,1111122,1111122' 
LUMCON,ioos:station:LUMCON:102:1,2015-04-16T21:45:00Z,29.1870,-90.6093,0.0,22.4,85.0,-9999.0,'1111122,1111122,1111122' 
LUMCON,ioos:station:LUMCON:102:1,2015-04-16T22:00:00Z,29.1870,-90.6093,0.0,-9999.0,73.0,-9999.0,'1111122,1111122,1111122' 
LUMCON,ioos:station:LUMCON:102:1,2015-04-16T22:15:00Z,29.1870,-90.6093,0.0,-9999.0,94.0,-9999.0,'1111122,1111122,1111122' 
LUMCON,ioos:station:LUMCON:102:1,2015-04-16T22:30:00Z,29.1870,-90.6093,0.0,-9999.0,0.0,-9999.0,'1111122,1114422,1111122' 
LUMCON,ioos:station:LUMCON:102:1,2015-04-16T22:45:00Z,29.1870,-90.6093,0.0,24.8,113.0,-9999.0,'1111122,1111122,1111122' 
LUMCON,ioos:station:LUMCON:102:1,2015-04-16T23:00:00Z,29.1870,-90.6093,0.0,-9999.0,99.0,-9999.0,'1111122,1111122,1111122' 
LUMCON,ioos:station:LUMCON:102:1,2015-04-16T23:15:00Z,29.1870,-90.6093,0.0,-9999.0,99.0,-9999.0,'1111122,1111122,1111122' 
LUMCON,ioos:station:LUMCON:102:1,2015-04-16T23:30:00Z,29.1870,-90.6093,0.0,-9999.0,107.0,-9999.0,'1111122,1111122,1111122' 
LUMCON,ioos:station:LUMCON:102:1,2015-04-16T23:45:00Z,29.1870,-90.6093,0.0,22.6,115.0,-9999.0,'1111122,1111122,1111122' 
LUMCON,ioos:station:LUMCON:102:1,2015-04-17T00:00:00Z,29.1870,-90.6093,0.0,-9999.0,107.0,-9999.0,'1111122,1111122,1111122' 
LUMCON,ioos:station:LUMCON:102:1,2015-04-17T00:15:00Z,29.1870,-90.6093,0.0,-9999.0,118.0,-9999.0,'1111122,1111122,1111122' 
LUMCON,ioos:station:LUMCON:102:1,2015-04-17T00:30:00Z,29.1870,-90.6093,0.0,-9999.0,123.0,-9999.0,'1111122,1111122,1111122' 
LUMCON,ioos:station:LUMCON:102:1,2015-04-17T00:45:00Z,29.1870,-90.6093,0.0,18.4,128.0,-9999.0,'1111122,1111122,1111122' 
LUMCON,ioos:station:LUMCON:102:1,2015-04-17T01:00:00Z,29.1870,-90.6093,0.0,-9999.0,105.0,-9999.0,'1111122,1111122,1111122' 
LUMCON,ioos:station:LUMCON:102:1,2015-04-17T01:15:00Z,29.1870,-90.6093,0.0,-9999.0,120.0,-9999.0,'1111122,1111122,1111122' 
LUMCON,ioos:station:LUMCON:102:1,2015-04-17T01:30:00Z,29.1870,-90.6093,0.0,-9999.0,114.0,-9999.0,'1111122,1111122,1111122' 
LUMCON,ioos:station:LUMCON:102:1,2015-04-17T01:45:00Z,29.1870,-90.6093,0.0,0.0,0.0,-9999.0,'1114422,1114422,1111122' 
LUMCON,ioos:station:LUMCON:102:1,2015-04-17T02:00:00Z,29.1870,-90.6093,0.0,-9999.0,116.0,-9999.0,'1111122,1111122,1111122' 
LUMCON,ioos:station:LUMCON:102:1,2015-04-17T02:15:00Z,29.1870,-90.6093,0.0,-9999.0,94.0,-9999.0,'1111122,1111122,1111122' 
LUMCON,ioos:station:LUMCON:102:1,2015-04-17T02:30:00Z,29.1870,-90.6093,0.0,-9999.0,108.0,-9999.0,'1111122,1111122,1111122' 
LUMCON,ioos:station:LUMCON:102:1,2015-04-17T02:45:00Z,29.1870,-90.6093,0.0,17.1,124.0,-9999.0,'1111122,1111122,1111122' 
LUMCON,ioos:station:LUMCON:102:1,2015-04-17T03:00:00Z,29.1870,-90.6093,0.0,-9999.0,134.0,-9999.0,'1111122,1111122,1111122' 
LUMCON,ioos:station:LUMCON:102:1,2015-04-17T03:15:00Z,29.1870,-90.6093,0.0,-9999.0,129.0,-9999.0,'1111122,1111122,1111122' 
LUMCON,ioos:station:LUMCON:102:1,2015-04-17T03:30:00Z,29.1870,-90.6093,0.0,-9999.0,127.0,-9999.0,'1111122,1111122,1111122' 
LUMCON,ioos:station:LUMCON:102:1,2015-04-17T03:45:00Z,29.1870,-90.6093,0.0,19.3,133.0,-9999.0,'1111122,1111122,1111122' 
LUMCON,ioos:station:LUMCON:102:1,2015-04-17T04:00:00Z,29.1870,-90.6093,0.0,-9999.0,119.0,-9999.0,'1111122,1111122,1111122' 
LUMCON,ioos:station:LUMCON:102:1,2015-04-17T04:15:00Z,29.1870,-90.6093,0.0,-9999.0,122.0,-9999.0,'1111122,1111122,1111122' 
LUMCON,ioos:station:LUMCON:102:1,2015-04-17T04:30:00Z,29.1870,-90.6093,0.0,-9999.0,142.0,-9999.0,'1111122,1111122,1111122' 
LUMCON,ioos:station:LUMCON:102:1,2015-04-17T04:45:00Z,29.1870,-90.6093,0.0,16.5,155.0,-9999.0,'1111122,1111122,1111122' 
LUMCON,ioos:station:LUMCON:102:1,2015-04-17T05:00:00Z,29.1870,-90.6093,0.0,-9999.0,154.0,-9999.0,'1111122,1111122,1111122' 
LUMCON,ioos:station:LUMCON:102:1,2015-04-17T05:15:00Z,29.1870,-90.6093,0.0,-9999.0,146.0,-9999.0,'1111122,1111122,1111122' 
LUMCON,ioos:station:LUMCON:102:1,2015-04-17T05:30:00Z,29.1870,-90.6093,0.0,-9999.0,183.0,-9999.0,'1111122,1111122,1111122' 
LUMCON,ioos:station:LUMCON:102:1,2015-04-17T05:45:00Z,29.1870,-90.6093,0.0,5.0,152.0,-9999.0,'1111122,1111122,1111122' 
LUMCON,ioos:station:LUMCON:102:1,2015-04-17T06:00:00Z,29.1870,-90.6093,0.0,-9999.0,185.0,-9999.0,'1111122,1111122,1111122' 
LUMCON,ioos:station:LUMCON:102:1,2015-04-17T06:15:00Z,29.1870,-90.6093,0.0,-9999.0,134.0,-9999.0,'1111122,1111122,1111122' 
LUMCON,ioos:station:LUMCON:102:1,2015-04-17T06:30:00Z,29.1870,-90.6093,0.0,-9999.0,112.0,-9999.0,'1111122,1111122,1111122' 
LUMCON,ioos:station:LUMCON:102:1,2015-04-17T06:45:00Z,29.1870,-90.6093,0.0,15.1,50.0,-9999.0,'1111122,1111122,1111122' 
LUMCON,ioos:station:LUMCON:102:1,2015-04-17T07:00:00Z,29.1870,-90.6093,0.0,-9999.0,62.0,-9999.0,'1111122,1111122,1111122' 
LUMCON,ioos:station:LUMCON:102:1,2015-04-17T07:15:00Z,29.1870,-90.6093,0.0,-9999.0,82.0,-9999.0,'1111122,1111122,1111122' 
LUMCON,ioos:station:LUMCON:102:1,2015-04-17T07:30:00Z,29.1870,-90.6093,0.0,-9999.0,92.0,-9999.0,'1111122,1111122,1111122' 
LUMCON,ioos:station:LUMCON:102:1,2015-04-17T07:45:00Z,29.1870,-90.6093,0.0,8.2,130.0,-9999.0,'1111122,1111122,1111122' 
LUMCON,ioos:station:LUMCON:102:1,2015-04-17T08:00:00Z,29.1870,-90.6093,0.0,-9999.0,83.0,-9999.0,'1111122,1111122,1111122' 
LUMCON,ioos:station:LUMCON:102:1,2015-04-17T08:15:00Z,29.1870,-90.6093,0.0,-9999.0,70.0,-9999.0,'1111122,1111122,1111122' 
LUMCON,ioos:station:LUMCON:102:1,2015-04-17T08:30:00Z,29.1870,-90.6093,0.0,-9999.0,91.0,-9999.0,'1111122,1111122,1111122' 
LUMCON,ioos:station:LUMCON:102:1,2015-04-17T08:45:00Z,29.1870,-90.6093,0.0,5.7,137.0,-9999.0,'1111122,1111122,1111122' 
LUMCON,ioos:station:LUMCON:102:1,2015-04-17T09:00:00Z,29.1870,-90.6093,0.0,-9999.0,163.0,-9999.0,'1111122,1111122,1111122' 
LUMCON,ioos:station:LUMCON:102:1,2015-04-17T09:15:00Z,29.1870,-90.6093,0.0,-9999.0,206.0,-9999.0,'1111122,1111122,1111122' 
LUMCON,ioos:station:LUMCON:102:1,2015-04-17T09:30:00Z,29.1870,-90.6093,0.0,-9999.0,203.0,-9999.0,'1111122,1111122,1111122' 
LUMCON,ioos:station:LUMCON:102:1,2015-04-17T09:45:00Z,29.1870,-90.6093,0.0,20.3,226.0,-9999.0,'1111122,1111122,1111122' 
LUMCON,ioos:station:LUMCON:102:1,2015-04-17T10:00:00Z,29.1870,-90.6093,0.0,-9999.0,223.0,-9999.0,'1111122,1111122,1111122' 
LUMCON,ioos:station:LUMCON:102:1,2015-04-17T10:15:00Z,29.1870,-90.6093,0.0,-9999.0,213.0,-9999.0,'1111122,1111122,1111122' 
LUMCON,ioos:station:LUMCON:102:1,2015-04-17T10:30:00Z,29.1870,-90.6093,0.0,-9999.0,214.0,-9999.0,'1111122,1111122,1111122' 
LUMCON,ioos:station:LUMCON:102:1,2015-04-17T10:45:00Z,29.1870,-90.6093,0.0,17.6,220.0,-9999.0,'1111122,1111122,1111122' 
LUMCON,ioos:station:LUMCON:102:1,2015-04-17T11:00:00Z,29.1870,-90.6093,0.0,-9999.0,217.0,-9999.0,'1111122,1111122,1111122' 
LUMCON,ioos:station:LUMCON:102:1,2015-04-17T11:15:00Z,29.1870,-90.6093,0.0,-9999.0,222.0,-9999.0,'1111122,1111122,1111122' 
LUMCON,ioos:station:LUMCON:102:1,2015-04-17T11:30:00Z,29.1870,-90.6093,0.0,-9999.0,224.0,-9999.0,'1111122,1111122,1111122' 
LUMCON,ioos:station:LUMCON:102:1,2015-04-17T11:45:00Z,29.1870,-90.6093,0.0,15.2,219.0,-9999.0,'1111122,1111122,1111122' 
LUMCON,ioos:station:LUMCON:102:1,2015-04-17T12:00:00Z,29.1870,-90.6093,0.0,-9999.0,228.0,-9999.0,'1111122,1111122,1111122' 
LUMCON,ioos:station:LUMCON:102:1,2015-04-17T12:15:00Z,29.1870,-90.6093,0.0,-9999.0,218.0,-9999.0,'1111122,1111122,1111122' 
LUMCON,ioos:station:LUMCON:102:1,2015-04-17T12:30:00Z,29.1870,-90.6093,0.0,-9999.0,200.0,-9999.0,'1111122,1111122,1111122' 
LUMCON,ioos:station:LUMCON:102:1,2015-04-17T12:45:00Z,29.1870,-90.6093,0.0,3.1,226.0,-9999.0,'1111122,1111122,1111122' 
LUMCON,ioos:station:LUMCON:102:1,2015-04-17T13:00:00Z,29.1870,-90.6093,0.0,-9999.0,170.0,-9999.0,'1111122,1111122,1111122' 
LUMCON,ioos:station:LUMCON:102:1,2015-04-17T13:15:00Z,29.1870,-90.6093,0.0,-9999.0,58.0,-9999.0,'1111122,1111122,1111122' 
LUMCON,ioos:station:LUMCON:102:1,2015-04-17T13:30:00Z,29.1870,-90.6093,0.0,-9999.0,35.0,-9999.0,'1111122,1111122,1111122' 
LUMCON,ioos:station:LUMCON:102:1,2015-04-17T13:45:00Z,29.1870,-90.6093,0.0,5.3,2.0,-9999.0,'1111122,1111122,1111122' 
LUMCON,ioos:station:LUMCON:102:1,2015-04-17T14:00:00Z,29.1870,-90.6093,0.0,-9999.0,338.0,-9999.0,'1111122,1111122,1111122' 
LUMCON,ioos:station:LUMCON:102:1,2015-04-17T14:15:00Z,29.1870,-90.6093,0.0,-9999.0,353.0,-9999.0,'1111122,1111122,1111122' 
LUMCON,ioos:station:LUMCON:102:1,2015-04-17T14:30:00Z,29.1870,-90.6093,0.0,-9999.0,27.0,-9999.0,'1111122,1111122,1111122' 
LUMCON,ioos:station:LUMCON:102:1,2015-04-17T14:45:00Z,29.1870,-90.6093,0.0,2.7,48.0,-9999.0,'1111122,1111122,1111122' 
LUMCON,ioos:station:LUMCON:102:1,2015-04-17T15:00:00Z,29.1870,-90.6093,0.0,-9999.0,37.0,-9999.0,'1111122,1111122,1111122' 
LUMCON,ioos:station:LUMCON:102:1,2015-04-17T15:15:00Z,29.1870,-90.6093,0.0,-9999.0,329.0,-9999.0,'1111122,1111122,1111122' 
LUMCON,ioos:station:LUMCON:102:1,2015-04-17T15:30:00Z,29.1870,-90.6093,0.0,-9999.0,349.0,-9999.0,'1111122,1111122,1111122' 
LUMCON,ioos:station:LUMCON:102:1,2015-04-17T15:45:00Z,29.1870,-90.6093,0.0,3.0,329.0,-9999.0,'1111122,1111122,1111122' 
LUMCON,ioos:station:LUMCON:102:1,2015-04-17T16:00:00Z,29.1870,-90.6093,0.0,-9999.0,61.0,-9999.0,'1111122,1111122,1111122' 
LUMCON,ioos:station:LUMCON:102:1,2015-04-17T16:15:00Z,29.1870,-90.6093,0.0,-9999.0,62.0,-9999.0,'1111122,1111122,1111122' 
LUMCON,ioos:station:LUMCON:102:1,2015-04-17T16:30:00Z,29.1870,-90.6093,0.0,-9999.0,152.0,-9999.0,'1111122,1111122,1111122' 
LUMCON,ioos:station:LUMCON:102:1,2015-04-17T16:45:00Z,29.1870,-90.6093,0.0,7.1,165.0,-9999.0,'1111122,1111122,1111122' 
LUMCON,ioos:station:LUMCON:102:1,2015-04-17T17:00:00Z,29.1870,-90.6093,0.0,-9999.0,187.0,-9999.0,'1111122,1111122,1111122' 
LUMCON,ioos:station:LUMCON:102:1,2015-04-17T17:15:00Z,29.1870,-90.6093,0.0,-9999.0,189.0,-9999.0,'1111122,1111122,1111122' 
LUMCON,ioos:station:LUMCON:102:1,2015-04-17T17:30:00Z,29.1870,-90.6093,0.0,-9999.0,194.0,-9999.0,'1111122,1111122,1111122' 
LUMCON,ioos:station:LUMCON:102:1,2015-04-17T17:45:00Z,29.1870,-90.6093,0.0,7.0,186.0,-9999.0,'1111122,1111122,1111122' 
LUMCON,ioos:station:LUMCON:102:1,2015-04-17T18:00:00Z,29.1870,-90.6093,0.0,-9999.0,169.0,-9999.0,'1111122,1111122,1111122' 
LUMCON,ioos:station:LUMCON:102:1,2015-04-17T18:15:00Z,29.1870,-90.6093,0.0,-9999.0,153.0,-9999.0,'1111122,1111122,1111122' 
LUMCON,ioos:station:LUMCON:102:1,2015-04-17T18:30:00Z,29.1870,-90.6093,0.0,-9999.0,145.0,-9999.0,'1111122,1111122,1111122' 
LUMCON,ioos:station:LUMCON:102:1,2015-04-17T18:45:00Z,29.1870,-90.6093,0.0,4.9,143.0,-9999.0,'1111122,1111122,1111122' 
LUMCON,ioos:station:LUMCON:102:1,2015-04-17T19:00:00Z,29.1870,-90.6093,0.0,-9999.0,180.0,-9999.0,'1111122,1111122,1111122' 
LUMCON,ioos:station:LUMCON:102:1,2015-04-17T19:15:00Z,29.1870,-90.6093,0.0,-9999.0,191.0,-9999.0,'1111122,1111122,1111122' 
LUMCON,ioos:station:LUMCON:102:1,2015-04-17T19:30:00Z,29.1870,-90.6093,0.0,-9999.0,202.0,-9999.0,'1111122,1111122,1111122' 
LUMCON,ioos:station:LUMCON:102:1,2015-04-17T19:45:00Z,29.1870,-90.6093,0.0,7.1,206.0,-9999.0,'1111122,1111122,1111122' 
LUMCON,ioos:station:LUMCON:102:1,2015-04-17T20:00:00Z,29.1870,-90.6093,0.0,-9999.0,210.0,-9999.0,'1111122,1111122,1111122' 
LUMCON,ioos:station:LUMCON:102:1,2015-04-17T20:15:00Z,29.1870,-90.6093,0.0,-9999.0,195.0,-9999.0,'1111122,1111122,1111122' 
LUMCON,ioos:station:LUMCON:102:1,2015-04-17T20:30:00Z,29.1870,-90.6093,0.0,-9999.0,181.0,-9999.0,'1111122,1111122,1111122' 
LUMCON,ioos:station:LUMCON:102:1,2015-04-17T20:45:00Z,29.1870,-90.6093,0.0,9.8,179.0,-9999.0,'1111122,1111122,1111122' 
LUMCON,ioos:station:LUMCON:102:1,2015-04-17T21:00:00Z,29.1870,-90.6093,0.0,-9999.0,177.0,-9999.0,'1111122,1111122,1111122' 
LUMCON,ioos:station:LUMCON:102:1,2015-04-17T21:15:00Z,29.1870,-90.6093,0.0,-9999.0,174.0,-9999.0,'1111122,1111122,1111122' 
LUMCON,ioos:station:LUMCON:102:1,2015-04-17T21:30:00Z,29.1870,-90.6093,0.0,-9999.0,170.0,-9999.0,'1111122,1111122,1111122' 
LUMCON,ioos:station:LUMCON:102:1,2015-04-17T21:45:00Z,29.1870,-90.6093,0.0,8.9,168.0,-9999.0,'1111122,1111122,1111122' 
LUMCON,ioos:station:LUMCON:102:1,2015-04-17T22:00:00Z,29.1870,-90.6093,0.0,-9999.0,185.0,-9999.0,'1111122,1111122,1111122' 
LUMCON,ioos:station:LUMCON:102:1,2015-04-17T22:15:00Z,29.1870,-90.6093,0.0,-9999.0,183.0,-9999.0,'1111122,1111122,1111122' 
LUMCON,ioos:station:LUMCON:102:1,2015-04-17T22:30:00Z,29.1870,-90.6093,0.0,-9999.0,178.0,-9999.0,'1111122,1111122,1111122' 
LUMCON,ioos:station:LUMCON:102:1,2015-04-17T22:45:00Z,29.1870,-90.6093,0.0,6.1,174.0,-9999.0,'1111122,1111122,1111122' 
LUMCON,ioos:station:LUMCON:102:1,2015-04-17T23:00:00Z,29.1870,-90.6093,0.0,-9999.0,196.0,-9999.0,'1111122,1111122,1111122' 
LUMCON,ioos:station:LUMCON:102:1,2015-04-17T23:15:00Z,29.1870,-90.6093,0.0,-9999.0,201.0,-9999.0,'1111122,1111122,1111122' 
LUMCON,ioos:station:LUMCON:102:1,2015-04-17T23:30:00Z,29.1870,-90.6093,0.0,-9999.0,191.0,-9999.0,'1111122,1111122,1111122' 
LUMCON,ioos:station:LUMCON:102:1,2015-04-17T23:45:00Z,29.1870,-90.6093,0.0,5.7,187.0,-9999.0,'1111122,1111122,1111122' 
LUMCON,ioos:station:LUMCON:102:1,2015-04-18T00:00:00Z,29.1870,-90.6093,0.0,-9999.0,189.0,-9999.0,'1111122,1111122,1111122' 
LUMCON,ioos:station:LUMCON:102:1,2015-04-18T00:15:00Z,29.1870,-90.6093,0.0,-9999.0,214.0,-9999.0,'1111122,1111122,1111122' 
LUMCON,ioos:station:LUMCON:102:1,2015-04-18T00:30:00Z,29.1870,-90.6093,0.0,-9999.0,212.0,-9999.0,'1111122,1111122,1111122' 
LUMCON,ioos:station:LUMCON:102:1,2015-04-18T00:45:00Z,29.1870,-90.6093,0.0,7.2,218.0,-9999.0,'1111122,1111122,1111122' 
LUMCON,ioos:station:LUMCON:102:1,2015-04-18T01:00:00Z,29.1870,-90.6093,0.0,-9999.0,214.0,-9999.0,'1111122,1111122,1111122' 
LUMCON,ioos:station:LUMCON:102:1,2015-04-18T01:15:00Z,29.1870,-90.6093,0.0,-9999.0,217.0,-9999.0,'1111122,1111122,1111122' 
LUMCON,ioos:station:LUMCON:102:1,2015-04-18T01:30:00Z,29.1870,-90.6093,0.0,-9999.0,207.0,-9999.0,'1111122,1111122,1111122' 
LUMCON,ioos:station:LUMCON:102:1,2015-04-18T01:45:00Z,29.1870,-90.6093,0.0,10.9,202.0,-9999.0,'1111122,1111122,1111122' 
LUMCON,ioos:station:LUMCON:102:1,2015-04-18T02:00:00Z,29.1870,-90.6093,0.0,-9999.0,194.0,-9999.0,'1111122,1111122,1111122' 
LUMCON,ioos:station:LUMCON:102:1,2015-04-18T02:15:00Z,29.1870,-90.6093,0.0,-9999.0,193.0,-9999.0,'1111122,1111122,1111122' 
LUMCON,ioos:station:LUMCON:102:1,2015-04-18T02:30:00Z,29.1870,-90.6093,0.0,-9999.0,209.0,-9999.0,'1111122,1111122,1111122' 
LUMCON,ioos:station:LUMCON:102:1,2015-04-18T02:45:00Z,29.1870,-90.6093,0.0,13.1,218.0,-9999.0,'1111122,1111122,1111122' 
LUMCON,ioos:station:LUMCON:102:1,2015-04-18T03:00:00Z,29.1870,-90.6093,0.0,-9999.0,233.0,-9999.0,'1111122,1111122,1111122' 
LUMCON,ioos:station:LUMCON:102:1,2015-04-18T03:15:00Z,29.1870,-90.6093,0.0,-9999.0,12.0,-9999.0,'1111122,1111122,1111122' 
LUMCON,ioos:station:LUMCON:102:1,2015-04-18T03:30:00Z,29.1870,-90.6093,0.0,-9999.0,44.0,-9999.0,'1111122,1111122,1111122' 
LUMCON,ioos:station:LUMCON:102:1,2015-04-18T03:45:00Z,29.1870,-90.6093,0.0,20.8,48.0,-9999.0,'1111122,1111122,1111122' 
LUMCON,ioos:station:LUMCON:102:1,2015-04-18T04:00:00Z,29.1870,-90.6093,0.0,-9999.0,66.0,-9999.0,'1111122,1111122,1111122' 
LUMCON,ioos:station:LUMCON:102:1,2015-04-18T04:15:00Z,29.1870,-90.6093,0.0,-9999.0,107.0,-9999.0,'1111122,1111122,1111122' 
LUMCON,ioos:station:LUMCON:102:1,2015-04-18T04:30:00Z,29.1870,-90.6093,0.0,-9999.0,106.0,-9999.0,'1111122,1111122,1111122' 
LUMCON,ioos:station:LUMCON:102:1,2015-04-18T04:45:00Z,29.1870,-90.6093,0.0,15.1,133.0,-9999.0,'1111122,1111122,1111122' 
LUMCON,ioos:station:LUMCON:102:1,2015-04-18T05:00:00Z,29.1870,-90.6093,0.0,-9999.0,134.0,-9999.0,'1111122,1111122,1111122' 
LUMCON,ioos:station:LUMCON:102:1,2015-04-18T05:15:00Z,29.1870,-90.6093,0.0,-9999.0,122.0,-9999.0,'1111122,1111122,1111122' 
LUMCON,ioos:station:LUMCON:102:1,2015-04-18T05:30:00Z,29.1870,-90.6093,0.0,-9999.0,111.0,-9999.0,'1111122,1111122,1111122' 
LUMCON,ioos:station:LUMCON:102:1,2015-04-18T05:45:00Z,29.1870,-90.6093,0.0,18.0,109.0,-9999.0,'1111122,1111122,1111122' 
LUMCON,ioos:station:LUMCON:102:1,2015-04-18T06:00:00Z,29.1870,-90.6093,0.0,-9999.0,117.0,-9999.0,'1111122,1111122,1111122' 
LUMCON,ioos:station:LUMCON:102:1,2015-04-18T06:15:00Z,29.1870,-90.6093,0.0,-9999.0,120.0,-9999.0,'1111122,1111122,1111122' 
LUMCON,ioos:station:LUMCON:102:1,2015-04-18T06:30:00Z,29.1870,-90.6093,0.0,-9999.0,132.0,-9999.0,'1111122,1111122,1111122' 
LUMCON,ioos:station:LUMCON:102:1,2015-04-18T06:45:00Z,29.1870,-90.6093,0.0,0.0,0.0,-9999.0,'1114422,1114422,1111122' 
LUMCON,ioos:station:LUMCON:102:1,2015-04-18T07:00:00Z,29.1870,-90.6093,0.0,-9999.0,0.0,-9999.0,'1111122,1114422,1111122' 
LUMCON,ioos:station:LUMCON:102:1,2015-04-18T07:15:00Z,29.1870,-90.6093,0.0,-9999.0,109.0,-9999.0,'1111122,1111122,1111122' 
LUMCON,ioos:station:LUMCON:102:1,2015-04-18T07:30:00Z,29.1870,-90.6093,0.0,-9999.0,0.0,-9999.0,'1111122,1114422,1111122' 
LUMCON,ioos:station:LUMCON:102:1,2015-04-18T07:45:00Z,29.1870,-90.6093,0.0,0.0,0.0,-9999.0,'1114422,1114422,1111122' 
LUMCON,ioos:station:LUMCON:102:1,2015-04-18T08:00:00Z,29.1870,-90.6093,0.0,-9999.0,0.0,-9999.0,'1111122,1114422,1111122' 
LUMCON,ioos:station:LUMCON:102:1,2015-04-18T08:15:00Z,29.1870,-90.6093,0.0,-9999.0,85.0,-9999.0,'1111122,1111122,1111122' 
LUMCON,ioos:station:LUMCON:102:1,2015-04-18T08:30:00Z,29.1870,-90.6093,0.0,-9999.0,0.0,-9999.0,'1111122,1114422,1111122' 
LUMCON,ioos:station:LUMCON:102:1,2015-04-18T08:45:00Z,29.1870,-90.6093,0.0,0.0,0.0,-9999.0,'1114422,1114422,1111122' 
LUMCON,ioos:station:LUMCON:102:1,2015-04-18T09:00:00Z,29.1870,-90.6093,0.0,-9999.0,45.0,-9999.0,'1111122,1111122,1111122' 
LUMCON,ioos:station:LUMCON:102:1,2015-04-18T09:15:00Z,29.1870,-90.6093,0.0,-9999.0,52.0,-9999.0,'1111122,1111122,1111122' 
LUMCON,ioos:station:LUMCON:102:1,2015-04-18T09:30:00Z,29.1870,-90.6093,0.0,-9999.0,82.0,-9999.0,'1111122,1111122,1111122' 
LUMCON,ioos:station:LUMCON:102:1,2015-04-18T09:45:00Z,29.1870,-90.6093,0.0,20.1,97.0,-9999.0,'1111122,1111122,1111122' 
LUMCON,ioos:station:LUMCON:102:1,2015-04-18T10:00:00Z,29.1870,-90.6093,0.0,-9999.0,112.0,-9999.0,'1111122,1111122,1111122' 
LUMCON,ioos:station:LUMCON:102:1,2015-04-18T10:15:00Z,29.1870,-90.6093,0.0,-9999.0,125.0,-9999.0,'1111122,1111122,1111122' 
LUMCON,ioos:station:LUMCON:102:1,2015-04-18T10:30:00Z,29.1870,-90.6093,0.0,-9999.0,133.0,-9999.0,'1111122,1111122,1111122' 
LUMCON,ioos:station:LUMCON:102:1,2015-04-18T10:45:00Z,29.1870,-90.6093,0.0,23.8,146.0,-9999.0,'1111122,1111122,1111122' 
LUMCON,ioos:station:LUMCON:102:1,2015-04-18T11:00:00Z,29.1870,-90.6093,0.0,-9999.0,144.0,-9999.0,'1111122,1111122,1111122' 
LUMCON,ioos:station:LUMCON:102:1,2015-04-18T11:15:00Z,29.1870,-90.6093,0.0,-9999.0,0.0,-9999.0,'1111122,1114422,1111122' 